Previsão horária em Ceres

Hoje, 29 Julho, Quinta-feira

Tempo Temperatura Precipitação Vento Pressão Humidade
00:00 +20°C° 0 mm 5 m/s 712 mmHg 48%
01:00 +19°C° 0 mm 5 m/s 712 mmHg 48%
02:00 +16°C° 0 mm 5 m/s 712 mmHg 48%
03:00 +15°C° 0 mm 5 m/s 711 mmHg 50%
04:00 +14°C° 0 mm 5 m/s 711 mmHg 48%
05:00 +14°C° 0 mm 4 m/s 711 mmHg 47%
06:00 +14°C° 0 mm 4 m/s 711 mmHg 46%
07:00 +15°C° 0 mm 4 m/s 712 mmHg 40%
08:00 +17°C° 0 mm 4 m/s 713 mmHg 34%
09:00 +17°C° 0 mm 5 m/s 713 mmHg 29%
10:00 +21°C° 0 mm 4 m/s 713 mmHg 27%
11:00 +23°C° 0 mm 4 m/s 713 mmHg 25%
12:00 +27°C° 0 mm 4 m/s 713 mmHg 24%
13:00 +28°C° 0 mm 3 m/s 712 mmHg 23%
14:00 +29°C° 0 mm 3 m/s 711 mmHg 23%
15:00 +30°C° 0 mm 3 m/s 711 mmHg 23%
16:00 +29°C° 0 mm 3 m/s 711 mmHg 25%
17:00 +27°C° 0 mm 3 m/s 710 mmHg 27%
18:00 +25°C° 0 mm 3 m/s 710 mmHg 30%
19:00 +24°C° 0 mm 3 m/s 711 mmHg 30%
20:00 +22°C° 0 mm 3 m/s 711 mmHg 30%
21:00 +20°C° 0 mm 3 m/s 712 mmHg 30%
22:00 +19°C° 0 mm 3 m/s 712 mmHg 30%
23:00 +18°C° 0 mm 3 m/s 712 mmHg 29%

Amanhã, 30 Julho, Sexta-feira

Tempo Temperatura Precipitação Vento Pressão Humidade
00:00 +17°C° 0 mm 2 m/s 712 mmHg 29%
01:00 +17°C° 0 mm 2 m/s 711 mmHg 29%
02:00 +16°C° 0 mm 2 m/s 711 mmHg 29%
03:00 +15°C° 0 mm 2 m/s 711 mmHg 29%
04:00 +15°C° 0 mm 2 m/s 711 mmHg 29%
05:00 +15°C° 0 mm 2 m/s 711 mmHg 28%
06:00 +14°C° 0 mm 2 m/s 711 mmHg 28%
07:00 +16°C° 0 mm 2 m/s 712 mmHg 25%
08:00 +18°C° 0 mm 3 m/s 713 mmHg 22%
09:00 +21°C° 0 mm 3 m/s 713 mmHg 19%
10:00 +25°C° 0 mm 3 m/s 713 mmHg 18%
11:00 +28°C° 0 mm 3 m/s 713 mmHg 17%
12:00 +31°C° 0 mm 2 m/s 713 mmHg 17%
13:00 +32°C° 0 mm 2 m/s 712 mmHg 17%
14:00 +34°C° 0 mm 2 m/s 712 mmHg 18%
15:00 +34°C° 0 mm 1 m/s 711 mmHg 18%
16:00 +32°C° 0 mm 1 m/s 711 mmHg 21%
17:00 +30°C° 0 mm 1 m/s 711 mmHg 23%
18:00 +28°C° 0 mm 1 m/s 710 mmHg 26%
19:00 +27°C° 0 mm 2 m/s 711 mmHg 28%
20:00 +25°C° 0 mm 2 m/s 711 mmHg 31%
21:00 +22°C° 0 mm 3 m/s 712 mmHg 33%
22:00 +21°C° 0 mm 2 m/s 712 mmHg 33%
23:00 +20°C° 0 mm 2 m/s 712 mmHg 34%

Depois de amanhã, 31 Julho, Sábado

Tempo Temperatura Precipitação Vento Pressão Humidade
00:00 +20°C° 0 mm 2 m/s 712 mmHg 34%
01:00 +19°C° 0 mm 2 m/s 712 mmHg 35%
02:00 +18°C° 0 mm 2 m/s 711 mmHg 36%
03:00 +18°C° 0 mm 2 m/s 711 mmHg 37%
04:00 +18°C° 0 mm 2 m/s 711 mmHg 38%
05:00 +17°C° 0 mm 2 m/s 712 mmHg 38%
06:00 +18°C° 0 mm 1 m/s 712 mmHg 39%
07:00 +20°C° 0 mm 2 m/s 712 mmHg 38%
08:00 +22°C° 0 mm 3 m/s 713 mmHg 37%
09:00 +25°C° 0 mm 3 m/s 714 mmHg 36%
10:00 +28°C° 0 mm 4 m/s 714 mmHg 33%
11:00 +30°C° 0 mm 4 m/s 714 mmHg 29%
12:00 +34°C° 0 mm 4 m/s 713 mmHg 26%
13:00 +35°C° 0 mm 3 m/s 713 mmHg 23%
14:00 +36°C° 0 mm 2 m/s 712 mmHg 21%
15:00 +36°C° 0 mm 1 m/s 711 mmHg 18%
16:00 +34°C° 0 mm 1 m/s 711 mmHg 20%
17:00 +32°C° 0 mm 1 m/s 711 mmHg 22%
18:00 +28°C° 0 mm 0 m/s 711 mmHg 24%
19:00 +29°C° 0 mm 1 m/s 711 mmHg 26%
20:00 +28°C° 0 mm 1 m/s 712 mmHg 28%
21:00 +27°C° 0 mm 1 m/s 712 mmHg 30%
22:00 +26°C° 0 mm 2 m/s 713 mmHg 35%
23:00 +25°C° 0 mm 2 m/s 713 mmHg 39%

1 Agosto, Domingo

Tempo Temperatura Precipitação Vento Pressão Humidade
00:00 +24°C° 0 mm 2 m/s 713 mmHg 43%
01:00 +23°C° 0 mm 2 m/s 713 mmHg 47%
02:00 +21°C° 0 mm 2 m/s 712 mmHg 51%
03:00 +21°C° 0 mm 2 m/s 712 mmHg 54%
04:00 +20°C° 0 mm 2 m/s 713 mmHg 56%
05:00 +20°C° 0 mm 2 m/s 713 mmHg 58%
06:00 +20°C° 0 mm 2 m/s 713 mmHg 60%
07:00 +21°C° 0 mm 3 m/s 714 mmHg 54%
08:00 +23°C° 0 mm 4 m/s 715 mmHg 49%
09:00 +25°C° 0 mm 5 m/s 715 mmHg 43%
10:00 +27°C° 0 mm 5 m/s 715 mmHg 38%
11:00 +30°C° 0 mm 5 m/s 715 mmHg 32%
12:00 +33°C° 0 mm 5 m/s 715 mmHg 26%
13:00 +34°C° 0 mm 4 m/s 714 mmHg 24%
14:00 +35°C° 0 mm 3 m/s 714 mmHg 21%
15:00 +36°C° 0 mm 3 m/s 713 mmHg 19%
16:00 +34°C° 0 mm 3 m/s 713 mmHg 21%
17:00 +31°C° 0 mm 3 m/s 713 mmHg 22%
18:00 +30°C° 0 mm 3 m/s 713 mmHg 24%
19:00 +28°C° 0 mm 2 m/s 713 mmHg 28%
20:00 +26°C° 0 mm 2 m/s 714 mmHg 32%
21:00 +24°C° 0 mm 2 m/s 714 mmHg 36%
22:00 +24°C° 0 mm 2 m/s 714 mmHg 38%
23:00 +23°C° 0 mm 2 m/s 714 mmHg 40%

2 Agosto, Segunda-feira

Tempo Temperatura Precipitação Vento Pressão Humidade
00:00 +21°C° 0 mm 2 m/s 714 mmHg 41%
01:00 +21°C° 0 mm 2 m/s 714 mmHg 43%
02:00 +20°C° 0 mm 2 m/s 713 mmHg 45%
03:00 +19°C° 0 mm 2 m/s 713 mmHg 46%
04:00 +18°C° 0 mm 2 m/s 713 mmHg 47%
05:00 +18°C° 0 mm 2 m/s 713 mmHg 48%
06:00 +18°C° 0 mm 2 m/s 714 mmHg 49%
07:00 +20°C° 0 mm 3 m/s 714 mmHg 44%
08:00 +21°C° 0 mm 5 m/s 715 mmHg 39%
09:00 +23°C° 0 mm 6 m/s 715 mmHg 34%
10:00 +27°C° 0 mm 6 m/s 715 mmHg 29%
11:00 +29°C° 0 mm 5 m/s 715 mmHg 25%
12:00 +32°C° 0 mm 5 m/s 715 mmHg 20%
13:00 +33°C° 0 mm 4 m/s 714 mmHg 19%
14:00 +34°C° 0 mm 4 m/s 713 mmHg 17%
15:00 +35°C° 0 mm 3 m/s 713 mmHg 15%
16:00 +33°C° 0 mm 3 m/s 712 mmHg 17%
17:00 +30°C° 0 mm 2 m/s 712 mmHg 19%
18:00 +28°C° 0 mm 2 m/s 712 mmHg 21%
19:00 +27°C° 0 mm 2 m/s 712 mmHg 24%
20:00 +25°C° 0 mm 2 m/s 713 mmHg 27%
21:00 +23°C° 0 mm 2 m/s 713 mmHg 30%
22:00 +22°C° 0 mm 1 m/s 713 mmHg 32%
23:00 +21°C° 0 mm 1 m/s 713 mmHg 35%

3 Agosto, Terça-feira

Tempo Temperatura Precipitação Vento Pressão Humidade
00:00 +21°C° 0 mm 1 m/s 713 mmHg 37%
01:00 +20°C° 0 mm 1 m/s 712 mmHg 39%
02:00 +19°C° 0 mm 1 m/s 712 mmHg 40%
03:00 +19°C° 0 mm 1 m/s 712 mmHg 42%
04:00 +18°C° 0 mm 1 m/s 712 mmHg 43%
05:00 +18°C° 0 mm 1 m/s 712 mmHg 44%
06:00 +18°C° 0 mm 1 m/s 712 mmHg 45%
07:00 +19°C° 0 mm 2 m/s 712 mmHg 40%
08:00 +22°C° 0 mm 3 m/s 713 mmHg 34%
09:00 +25°C° 0 mm 4 m/s 714 mmHg 29%
10:00 +28°C° 0 mm 4 m/s 713 mmHg 24%
11:00 +30°C° 0 mm 4 m/s 713 mmHg 20%
12:00 +34°C° 0 mm 3 m/s 713 mmHg 16%
13:00 +35°C° 0 mm 3 m/s 713 mmHg 15%
14:00 +35°C° 0 mm 2 m/s 712 mmHg 14%
15:00 +36°C° 0 mm 2 m/s 711 mmHg 14%
16:00 +33°C° 0 mm 1 m/s 711 mmHg 16%
17:00 +31°C° 0 mm 1 m/s 710 mmHg 18%
18:00 +29°C° 0 mm 1 m/s 710 mmHg 20%
19:00 +28°C° 0 mm 1 m/s 711 mmHg 22%
20:00 +26°C° 0 mm 1 m/s 711 mmHg 25%
21:00 +25°C° 0 mm 1 m/s 711 mmHg 27%
22:00 +24°C° 0 mm 1 m/s 711 mmHg 28%
23:00 +23°C° 0 mm 1 m/s 712 mmHg 30%
Mostrar mais

Necessitamos do seu Consentimento

A Meteoprog e os seus Fornecedores de Serviços podem armazenar e aceder a dados pessoais como cookies, identificadores do dispositivo ou outras tecnologias semelhantes existentes no seu dispositivo e processar estes dados para personalizar conteúdos e anúncios, assim como funcionalidades nas redes sociais e análise de tráfego.

  • Armazenar e/ou aceder a informações no seu dispositivo

    Os cookies, identificadores do dispositivo ou outras informações podem ser armazenados ou acedidos no seu dispositivo, para os fins acima indicados.

  • Anúncios e conteúdos personalizados, medição de anúncios e conteúdos, dados sobre o público-alvo e desenvolvimento de produtos

    Os anúncios e os conteúdos podem ser personalizados com base num perfil. Podem ser adicionados dados adicionais para uma maior personalização dos anúncios e dos conteúdos. A eficácia dos anúncios e dos conteúdos pode ser medida. Podem ser obtidas informações sobre o público que visualizou os anúncios e os conteúdos. Estes dados podem ser usados para desenvolver ou melhorar sistemas, softwares ou a experiência do utilizador.

Ao clicar em "Eu concordo”, permitirá o uso de cookies, identificadores do dispositivo e web beacons mencionados ou outras tecnologias semelhantes. As configurações do navegador do seu dispositivo podem ser alteradas.

Para certos fins, podem ser invocados interesses legítimos ao invés de consentimento. Pode ler mais informação sobre este assunto na nossa Política de Privacidade e Cookies.